Location: Fort Worth, Tx
(32.7431°N, 97.3695°W)
Time: 01:09:55
(UTC-04:00)

Vanguard 2 - Pass Details

Date: 24 February 2024
Orbit: 552 x 2916 km, 32.9° (Epoch: 24 April)

Event Time Altitude Azimuth Distance (km) Brightness Sun altitude
Rises 20:21:23 0° 238° (WSW) 4,212 12.4 -13.1°
Reaches altitude 10° 20:23:48 10° 235° (SW) 3,498 11.8 -13.6°
Maximum altitude 20:33:10 66° 155° (SSE) 2,127 9.6 -15.6°
Enters shadow 20:44:00 21° 81° (E) 4,320 10.7 -17.9°
